Regional Weather Roundup
Issued by NWS Cleveland, OH

Home | Current Version | Previous Version | Text Only | Print | Product List | Glossary Off
Versions: 1 2 3 4 5 6 7 8 9 10 11 12 13 14 15 16 17 18 19 20 21 22 23 24 25 26 27 28 29 30 31 32 33 34 35 36 37 38 39 40 41 42 43 44 45 46 47 48 49 50

000
ASUS41 KCLE 291810
RWRCLE
OHIO REGIONAL WEATHER ROUNDUP
NATIONAL WEATHER SERVICE WILMINGTON, OH
200 PM EDT THU SEP 29 2016

NOTE: "FAIR" INDICATES FEW OR NO CLOUDS BELOW 12,000 FEET WITH NO
SIGNIFICANT WEATHER AND/OR OBSTRUCTIONS TO VISIBILITY.

OHZ001>008-015>018-024>027-034-035-043-044-291900-
   NORTHWEST OHIO

CITY           SKY/WX    TMP DP  RH WIND       PRES   REMARKS
DEFIANCE       FAIR      68  53  58 E13       30.13S
FINDLAY        PTSUNNY   67  54  63 N14       30.11F
TOLEDO EXPRESS PTSUNNY   66  58  75 NE13      30.14F
TOLEDO EXEC    PTSUNNY   65  59  81 N13       30.14F
LIMA           PTSUNNY   67  54  63 NE12      30.10S
$$

OHZ009>014-019>023-028>033-038-089-291900-
   NORTHEAST OHIO

CITY           SKY/WX    TMP DP  RH WIND       PRES   REMARKS
CLE-HOPKINS    RAIN      64  57  78 E12       30.14S
CLE-LAKEFRONT  LGT RAIN  63  58  83 E9        30.13R
CUY CO. ARPT   CLOUDY    64  61  88 E12       30.14F
LORAIN-ELYRIA  LGT RAIN  62  58  86 VRB3      30.12F
ASHTABULA      CLOUDY    63  62  97 NE5       30.17S
AKRON-CANTON   LGT RAIN  63  59  87 NE12      30.12F FOG
WOOSTER        LGT RAIN  61  58  90 NE8       30.11F FOG
MANSFIELD      CLOUDY    60  58  92 N9        30.11S
YOUNGSTOWN     CLOUDY    61  57  87 E9        30.13F
$$

OHZ042-051>053-060>062-070>072-077>081-291900-
  SOUTHWEST OHIO

CITY           SKY/WX    TMP DP  RH WIND       PRES   REMARKS
CINC-COVINGTON PTSUNNY   63  52  67 NE9       30.08R
CINC-LUNKEN    PTSUNNY   64  54  69 NE8       30.09S
HAMILTON       PTSUNNY   65  53  65 E7        30.09S
DAYTON         PTSUNNY   63  51  65 E8        30.09S
WRIGHT-PAT AFB PTSUNNY   64  55  71 NE7       30.08S
DAYTON GENERAL FAIR      62  53  72 E8        30.08S
WILMINGTON     LGT RAIN  58  55  90 VRB3      30.08F
$$

OHZ036-037-039>041-045>050-054>059-063>069-073>076-082>088-291900-
  CENTRAL AND SOUTHEAST OHIO

CITY           SKY/WX    TMP DP  RH WIND       PRES   REMARKS
COLUMBUS       CLOUDY    66  56  70 NW5       30.07R
OSU AIRPORT    PTSUNNY   66  56  70 NE5       30.08R
BOLTON FIELD   CLOUDY    63  57  82 SW5       30.10R
RICKENBACK AFB CLOUDY    63  55  75 W7        30.07S
NEWARK         PTSUNNY   66  56  70 NE8       30.07S
MARION           N/A     66  54  65 NE6       30.10S
LANCASTER      CLOUDY    66  55  67 NW5       30.07R
ZANESVILLE     LGT RAIN  63  59  87 N7        30.07S
NEW PHILLY     CLOUDY    62  61  96 CALM      30.10S
$$




USA.gov is the U.S. government's official web portal to all federal, state and local government web resources and services.